This is the latest recevied weather packets stored in our database for station/object SP6KBU-12. If no packets are shown the sender has not sent any weather packets the latest 10 day(s).
| Time | Temp. | Humidity | Pressure | Rain* | Wind** | Luminosity | Snow |
|---|---|---|---|---|---|---|---|
| 1777786333 | 17.22° C | 31% | 1018.8 hPa | - | - | - | - |
| 1777785434 | 16.67° C | 32% | 1018.7 hPa | - | - | - | - |
| 1777784534 | 16.11° C | 33% | 1018.6 hPa | - | - | - | - |
| 1777784487 | 16.11° C | 33% | 1018.7 hPa | - | - | - | - |
| 1777783586 | 15.56° C | 33% | 1018.6 hPa | - | - | - | - |
| 1777782684 | 15° C | 34% | 1018.6 hPa | - | - | - | - |
| 1777781784 | 14.44° C | 34% | 1018.6 hPa | - | - | - | - |
| 1777780883 | 14.44° C | 34% | 1018.5 hPa | - | - | - | - |
| 1777779981 | 14.44° C | 35% | 1018.6 hPa | - | - | - | - |
| 1777779081 | 13.89° C | 35% | 1018.6 hPa | - | - | - | - |
| 1777778179 | 13.89° C | 34% | 1018.3 hPa | - | - | - | - |
| 1777777279 | 13.89° C | 34% | 1018.6 hPa | - | - | - | - |
| 1777776379 | 13.89° C | 35% | 1018.5 hPa | - | - | - | - |
| 1777775477 | 13.89° C | 34% | 1018.7 hPa | - | - | - | - |
| 1777774576 | 13.89° C | 36% | 1018.6 hPa | - | - | - | - |
| 1777773675 | 13.89° C | 36% | 1018.8 hPa | - | - | - | - |
| 1777772774 | 13.89° C | 36% | 1019 hPa | - | - | - | - |
| 1777771873 | 13.89° C | 36% | 1018.9 hPa | - | - | - | - |
| 1777770972 | 13.89° C | 36% | 1019 hPa | - | - | - | - |
| 1777770071 | 13.89° C | 36% | 1019 hPa | - | - | - | - |
| 1777769170 | 13.89° C | 36% | 1019.1 hPa | - | - | - | - |
| 1777768269 | 13.89° C | 37% | 1019.2 hPa | - | - | - | - |
| 1777767368 | 13.89° C | 37% | 1019.3 hPa | - | - | - | - |
| 1777766467 | 14.44° C | 35% | 1019.4 hPa | - | - | - | - |
| 1777765566 | 15° C | 34% | 1019.4 hPa | - | - | - | - |
* Rain since midnight (hover to see other rain measurements)
** Current wind speed in m/s (hover to see current wind gust speed)